EW7239 Weather Reports


time (UTC)temp
F
wind
direction
speed
knots
gust
knots
rain 1hr
in
rain 24hr
in
rain mn
in
humidity
%
barometer
mb
20260903124407 62 223 0.0 0.0 0.00 0.00 0.00 81 1014.7
20260903123908 62 223 0.0 0.0 0.00 0.00 0.00 81 1014.7
20260903123408 62 223 0.0 0.0 0.00 0.00 0.00 81 1014.7
20260903122908 62 223 0.0 0.0 0.00 0.00 0.00 81 1014.6
20260903122405 62 223 0.0 0.0 0.00 0.00 0.00 81 1014.6
20260903122135 62 223 0.0 0.0 0.00 0.00 0.00 80 1014.7
20260903121405 62 223 0.0 0.0 0.00 0.00 0.00 80 1014.6
20260903120915 63 223 0.0 0.0 0.00 0.00 0.00 80 1014.7
20260903120359 63 223 0.0 0.0 0.00 0.00 0.00 80 1014.7
20260903115900 63 223 0.0 0.0 0.00 0.00 0.00 80 1014.7
20260903115357 63 223 0.0 0.0 0.00 0.00 0.00 80 1014.7
20260903114627 63 223 0.0 0.0 0.00 0.00 0.00 80 1014.8
20260903114125 63 223 0.0 0.0 0.00 0.00 0.00 79 1014.8
20260903113353 63 223 0.0 0.0 0.00 0.00 0.00 79 1014.9
20260903113136 63 223 0.0 0.0 0.00 0.00 0.00 79 1014.9
20260903112349 63 223 0.0 0.0 0.00 0.00 0.00 79 1014.8
20260903111849 63 223 0.0 0.0 0.00 0.00 0.00 78 1014.8
20260903111348 64 223 0.0 0.0 0.00 0.00 0.00 78 1014.9
20260903110854 64 223 0.0 0.0 0.00 0.00 0.00 78 1014.9
20260903110339 64 223 0.0 0.9 0.00 0.00 0.00 78 1015.0
20260903105840 64 223 0.0 0.9 0.00 0.00 0.00 78 1014.9
20260903105336 64 223 0.0 2.6 0.00 0.00 0.00 78 1015.0
20260903105108 64 223 0.0 2.6 0.00 0.00 0.00 78 1015.1
20260903104336 64 223 0.0 0.9 0.00 0.00 0.00 78 1015.0
20260903103833 64 223 0.0 1.7 0.00 0.00 0.00 78 1015.0
20260903102833 64 223 0.0 0.9 0.00 0.00 0.00 77 1014.9
20260903102606 64 223 0.0 1.7 0.00 0.00 0.00 77 1015.1
20260903101835 64 223 0.0 1.7 0.00 0.00 0.00 77 1015.1
20260903101335 64 223 0.0 1.7 0.00 0.00 0.00 77 1015.1
20260903100834 64 223 0.9 1.7 0.00 0.00 0.00 77 1015.1
20260903100332 64 223 0.0 1.7 0.00 0.00 0.00 77 1015.1
20260903095832 64 223 0.0 0.9 0.00 0.00 0.00 76 1015.1
20260903095333 64 223 0.0 1.7 0.00 0.00 0.00 76 1015.1
20260903094833 65 223 0.0 1.7 0.00 0.00 0.00 76 1015.0
20260903094332 65 223 0.0 2.6 0.00 0.00 0.00 76 1015.2
20260903093833 65 223 0.9 2.6 0.00 0.00 0.00 76 1015.2
20260903093332 65 223 0.9 2.6 0.00 0.00 0.00 75 1015.2
20260903092826 65 223 0.9 2.6 0.00 0.00 0.00 75 1015.2
20260903092324 65 223 0.9 2.6 0.00 0.00 0.00 75 1015.3
20260903091825 65 223 0.9 2.6 0.00 0.00 0.00 74 1015.4
20260903091323 65 223 0.9 3.5 0.00 0.00 0.00 74 1015.4
20260903090825 65 223 0.9 3.5 0.00 0.00 0.00 74 1015.5
20260903090554 65 223 0.9 2.6 0.00 0.00 0.00 73 1015.5
20260903090052 65 223 0.9 2.6 0.00 0.00 0.00 73 1015.5
20260903085323 65 223 0.9 3.5 0.00 0.00 0.00 73 1015.6
20260903085054 65 223 0.9 3.5 0.00 0.00 0.00 73 1015.6
20260903084836 65 223 0.9 3.5 0.00 0.00 0.00 73 1015.6
20260903084322 65 223 1.7 2.6 0.00 0.00 0.00 73 1015.6
20260903083821 65 223 1.7 2.6 0.00 0.00 0.00 73 1015.7
20260903083550 65 223 0.9 2.6 0.00 0.00 0.00 73 1015.7
20260903083335 65 223 0.9 2.6 0.00 0.00 0.00 73 1015.7
20260903083051 65 223 1.7 3.5 0.00 0.00 0.00 73 1015.7
20260903082313 65 223 1.7 3.5 0.00 0.00 0.00 73 1015.7
20260903081813 65 223 0.9 3.5 0.00 0.00 0.00 73 1015.8
20260903081314 66 223 1.7 4.3 0.00 0.00 0.00 73 1015.8
20260903080812 66 223 1.7 4.3 0.00 0.00 0.00 73 1015.8
20260903075812 66 223 1.7 3.5 0.00 0.00 0.00 72 1015.7
20260903075312 66 223 1.7 3.5 0.00 0.00 0.00 72 1015.7
20260903074809 66 223 1.7 2.6 0.00 0.00 0.00 72 1015.7
20260903074541 66 223 1.7 2.6 0.00 0.00 0.00 72 1015.7
20260903074039 66 223 1.7 2.6 0.00 0.00 0.00 72 1015.7
20260903072805 66 223 0.9 2.6 0.00 0.00 0.00 72 1015.7
20260903072535 66 223 1.7 2.6 0.00 0.00 0.00 72 1015.7
20260903071803 66 223 0.9 2.6 0.00 0.00 0.00 72 1015.7
20260903071301 66 223 0.9 2.6 0.00 0.00 0.00 72 1015.6
20260903070802 66 223 0.9 2.6 0.00 0.00 0.00 72 1015.6
20260903070303 66 223 0.0 1.7 0.00 0.00 0.00 72 1015.7
20260903070030 66 223 0.0 2.6 0.00 0.00 0.00 72 1015.7
20260903065257 66 223 0.9 2.6 0.00 0.00 0.00 72 1015.7
20260903064758 66 223 0.9 2.6 0.00 0.00 0.00 72 1015.7
20260903064254 67 223 0.9 2.6 0.00 0.00 0.00 72 1015.7
20260903063754 66 223 0.9 2.6 0.00 0.00 0.00 72 1015.7
20260903063255 66 223 0.9 2.6 0.00 0.00 0.00 72 1015.7
20260903062756 66 223 0.0 2.6 0.00 0.00 0.00 72 1015.6
20260903062253 66 223 0.0 2.6 0.00 0.00 0.00 72 1015.7
20260903061753 66 223 0.9 1.7 0.00 0.00 0.00 73 1015.7
20260903061246 66 223 0.9 1.7 0.00 0.00 0.00 74 1015.7
20260903060747 66 223 0.0 0.9 0.00 0.00 0.00 72 1015.7
20260903060246 66 223 0.0 0.9 0.00 0.00 0.00 73 1015.7
20260903055746 67 223 0.0 1.7 0.00 0.00 0.00 73 1015.7
20260903055245 67 223 0.0 1.7 0.00 0.00 0.00 73 1015.7
20260903054745 67 223 0.0 0.9 0.00 0.00 0.00 72 1015.7
20260903054245 67 223 0.9 4.3 0.00 0.00 0.00 73 1015.7
20260903054014 67 223 0.9 4.3 0.00 0.00 0.00 73 1015.6
20260903053240 67 223 0.0 1.7 0.00 0.00 0.00 72 1015.7
20260903052739 67 223 0.9 3.5 0.00 0.00 0.00 72 1015.7
20260903052507 68 223 1.7 3.5 0.00 0.00 0.00 73 1015.6
20260903051736 68 223 2.6 5.2 0.00 0.00 0.00 72 1015.6
20260903051510 68 223 2.6 5.2 0.00 0.00 0.00 72 1015.5
20260903051035 68 223 3.5 7.0 0.00 0.00 0.00 71 1015.4
20260903050516 69 223 3.5 7.8 0.00 0.00 0.00 71 1015.3
20260903050426 69 223 4.3 7.8 0.00 0.00 0.00 71 1015.4
20260903050123 69 217 4.3 8.7 0.00 0.00 0.00 71 1015.3
20260903045845 69 223 4.3 7.8 0.00 0.00 0.00 71 1015.3
20260903045748 69 219 4.3 7.8 0.00 0.00 0.00 71 1015.4
20260903043507 69 217 4.3 9.6 0.00 0.00 0.00 71 1015.3
20260903043247 69 217 4.3 9.6 0.00 0.00 0.00 71 1015.3
20260903043008 69 219 4.3 9.6 0.00 0.00 0.00 70 1015.2
20260903042749 69 219 4.3 9.6 0.00 0.00 0.00 70 1015.2
20260903042249 70 225 4.3 8.7 0.00 0.00 0.00 70 1015.1
20260903041735 70 218 4.3 8.7 0.00 0.00 0.00 70 1015.1
20260903041507 70 228 5.2 8.7 0.00 0.00 0.00 69 1015.1
20260903040733 70 227 5.2 7.8 0.00 0.00 0.00 69 1015.1
20260903040708 71 218 3.5 7.0 0.00 0.00 0.00 66 1014.8
20260903040621 70 215 4.3 7.8 0.00 0.00 0.00 68 1015.0
20260903040512 71 219 4.3 7.8 0.00 0.00 0.00 68 1014.9
20260903040417 71 216 4.3 7.8 0.00 0.00 0.00 67 1014.9
20260903034500 71 217 4.3 8.7 0.00 0.00 0.00 65 1014.7
20260903033729 72 218 5.2 8.7 0.00 0.00 0.00 65 1014.7
20260903033500 72 222 5.2 8.7 0.00 0.00 0.00 64 1014.5
20260903032955 72 221 5.2 9.6 0.00 0.00 0.00 64 1014.4
20260903032225 72 222 4.3 9.6 0.00 0.00 0.00 63 1014.4
20260903031725 73 223 5.2 7.8 0.00 0.00 0.00 62 1014.4
20260903031226 73 223 5.2 8.7 0.00 0.00 0.00 62 1014.3
20260903030721 73 219 6.1 10.4 0.00 0.00 0.00 61 1014.3
20260903030222 73 223 6.1 10.4 0.00 0.00 0.00 60 1014.3
20260903025721 74 218 6.1 10.4 0.00 0.00 0.00 59 1014.3
20260903025452 74 225 6.1 10.4 0.00 0.00 0.00 58 1014.2
20260903024717 75 212 7.0 10.4 0.00 0.00 0.00 56 1014.2
20260903024217 75 224 7.0 12.2 0.00 0.00 0.00 55 1014.1
20260903023948 75 225 7.0 12.2 0.00 0.00 0.00 54 1014.0
20260903023759 75 225 7.0 12.2 0.00 0.00 0.00 54 1014.0
20260903023217 76 235 7.8 12.2 0.00 0.00 0.00 53 1014.0
20260903022943 76 224 7.8 13.0 0.00 0.00 0.00 52 1013.9
20260903022213 76 213 7.0 13.0 0.00 0.00 0.00 50 1013.9
20260903021944 77 227 7.0 12.2 0.00 0.00 0.00 48 1013.9
20260903021213 77 230 7.8 12.2 0.00 0.00 0.00 47 1013.9
20260903020712 77 225 7.0 11.3 0.00 0.00 0.00 45 1013.9
20260903020444 78 238 6.1 10.4 0.00 0.00 0.00 43 1013.9
20260903015712 78 215 7.0 13.0 0.00 0.00 0.00 42 1013.8
20260903015212 78 232 7.8 13.0 0.00 0.00 0.00 41 1013.8
20260903014712 79 238 7.8 13.9 0.00 0.00 0.00 39 1013.8
20260903014212 79 214 7.8 13.9 0.00 0.00 0.00 39 1013.8
20260903013713 80 223 7.0 12.2 0.00 0.00 0.00 38 1013.7
20260903013213 80 219 6.1 10.4 0.00 0.00 0.00 38 1013.7
20260903012940 80 226 6.1 10.4 0.00 0.00 0.00 37 1013.8
20260903012209 80 220 6.1 13.0 0.00 0.00 0.00 38 1013.7
20260903011709 81 201 7.0 13.0 0.00 0.00 0.00 39 1013.7
20260903011210 81 217 7.8 13.9 0.00 0.00 0.00 40 1013.7
20260903010935 81 221 7.8 13.9 0.00 0.00 0.00 40 1013.7
20260903010205 81 217 8.7 13.0 0.00 0.00 0.00 41 1013.7
20260903005936 82 224 7.0 13.0 0.00 0.00 0.00 40 1013.6
20260903004701 83 232 7.0 13.9 0.00 0.00 0.00 41 1013.6
20260903004201 83 219 7.8 12.2 0.00 0.00 0.00 41 1013.6
20260903003932 83 224 7.0 13.9 0.00 0.00 0.00 41 1013.5
20260903003202 84 214 6.1 13.9 0.00 0.00 0.00 40 1013.6
20260903002656 84 236 7.0 11.3 0.00 0.00 0.00 40 1013.5
20260903002158 84 235 7.8 13.9 0.00 0.00 0.00 39 1013.6
20260903001710 84 221 8.7 13.9 0.00 0.00 0.00 39 1013.5
20260903001211 84 227 7.8 12.2 0.00 0.00 0.00 38 1013.5
20260903000652 84 216 7.8 13.9 0.00 0.00 0.00 38 1013.6
20260903000154 85 242 7.0 13.9 0.00 0.00 0.00 37 1013.6
20260902235654 85 222 6.1 12.2 0.00 0.00 0.00 40 1013.6
20260902234649 86 213 6.1 13.0 0.00 0.00 0.00 39 1013.7
20260902234420 86 219 6.1 12.2 0.00 0.00 0.00 39 1013.7
20260902233718 86 253 7.0 12.2 0.00 0.00 0.00 40 1013.7
20260902233150 86 220 7.0 10.4 0.00 0.00 0.00 38 1013.7
20260902232916 86 266 6.1 9.6 0.00 0.00 0.00 38 1013.7
20260902232416 87 229 5.2 13.0 0.00 0.00 0.00 37 1013.7
20260902231917 87 202 6.1 13.0 0.00 0.00 0.00 36 1013.8
20260902231145 87 221 6.1 11.3 0.00 0.00 0.00 37 1013.8
20260902230641 86 221 7.0 13.0 0.00 0.00 0.00 36 1013.8
20260902230412 87 215 7.0 13.0 0.00 0.00 0.00 36 1013.9
20260902225641 88 221 6.1 13.0 0.00 0.00 0.00 33 1013.9
20260902225141 88 218 6.1 13.0 0.00 0.00 0.00 32 1013.9
20260902224138 89 201 5.2 10.4 0.00 0.00 0.00 30 1014.0
20260902223638 88 217 5.2 11.3 0.00 0.00 0.00 29 1014.0
20260902223408 88 225 6.1 12.2 0.00 0.00 0.00 29 1014.1
20260902222632 88 221 6.1 12.2 0.00 0.00 0.00 30 1014.2
20260902222133 88 223 6.1 11.3 0.00 0.00 0.00 27 1014.3
20260902221633 88 217 5.2 11.3 0.00 0.00 0.00 29 1014.3
20260902221133 88 219 6.1 10.4 0.00 0.00 0.00 30 1014.4
20260902220628 88 215 6.1 12.2 0.00 0.00 0.00 29 1014.4
20260902220129 89 202 6.1 12.2 0.00 0.00 0.00 28 1014.5
20260902215901 88 248 5.2 11.3 0.00 0.00 0.00 28 1014.5
20260902215635 88 248 5.2 11.3 0.00 0.00 0.00 28 1014.5
20260902215147 87 224 5.2 11.3 0.00 0.00 0.00 28 1014.5
20260902214625 88 226 5.2 11.3 0.00 0.00 0.00 28 1014.6
20260902214125 88 209 5.2 9.6 0.00 0.00 0.00 29 1014.6
20260902213625 88 220 5.2 9.6 0.00 0.00 0.00 28 1014.6
20260902213125 89 215 4.3 12.2 0.00 0.00 0.00 29 1014.6
20260902212620 88 229 4.3 12.2 0.00 0.00 0.00 29 1014.7
20260902212121 88 229 5.2 10.4 0.00 0.00 0.00 30 1014.7
20260902211852 87 201 5.2 9.6 0.00 0.00 0.00 29 1014.8
20260902211122 87 223 3.5 9.6 0.00 0.00 0.00 31 1014.9
20260902210618 86 225 4.3 9.6 0.00 0.00 0.00 31 1014.9
20260902210117 86 237 6.1 11.3 0.00 0.00 0.00 33 1015.0
20260902205848 87 221 5.2 11.3 0.00 0.00 0.00 33 1015.1
20260902205118 87 227 4.3 9.6 0.00 0.00 0.00 33 1015.2
20260902204612 86 238 4.3 8.7 0.00 0.00 0.00 35 1015.2
20260902203613 86 257 4.3 8.7 0.00 0.00 0.00 34 1015.3
20260902203114 86 221 4.3 8.7 0.00 0.00 0.00 34 1015.2
20260902202839 86 202 3.5 8.7 0.00 0.00 0.00 35 1015.3
20260902202109 86 223 4.3 9.6 0.00 0.00 0.00 36 1015.3
20260902201609 86 254 4.3 9.6 0.00 0.00 0.00 37 1015.4
20260902201109 86 236 2.6 7.0 0.00 0.00 0.00 37 1015.5
20260902200605 86 236 3.5 7.0 0.00 0.00 0.00 37 1015.6
20260902200106 86 229 3.5 7.8 0.00 0.00 0.00 37 1015.6
20260902195606 85 213 4.3 8.7 0.00 0.00 0.00 33 1015.7
20260902195106 84 223 3.5 9.6 0.00 0.00 0.00 34 1015.7
20260902194600 84 224 4.3 9.6 0.00 0.00 0.00 37 1015.8
20260902194101 84 220 4.3 7.8 0.00 0.00 0.00 36 1015.8
20260902193601 84 220 4.3 7.8 0.00 0.00 0.00 35 1015.9
20260902193101 84 255 4.3 8.7 0.00 0.00 0.00 36 1015.9
20260902192556 83 259 4.3 10.4 0.00 0.00 0.00 38 1016.0
20260902192057 83 257 4.3 10.4 0.00 0.00 0.00 36 1016.1
20260902191557 83 221 3.5 8.7 0.00 0.00 0.00 38 1016.2
20260902191057 82 239 3.5 6.1 0.00 0.00 0.00 39 1016.2
20260902190553 82 221 4.3 8.7 0.00 0.00 0.00 37 1016.3
20260902190106 82 221 5.2 9.6 0.00 0.00 0.00 38 1016.3
20260902185053 83 237 2.6 7.8 0.00 0.00 0.00 39 1016.3
20260902184552 82 241 2.6 6.1 0.00 0.00 0.00 39 1016.3
20260902184049 82 248 3.5 6.1 0.00 0.00 0.00 40 1016.4
20260902183820 82 248 3.5 6.1 0.00 0.00 0.00 40 1016.5
20260902183050 81 244 2.6 6.1 0.00 0.00 0.00 39 1016.6
20260902182815 81 240 2.6 7.0 0.00 0.00 0.00 41 1016.8
20260902182045 80 240 2.6 7.0 0.00 0.00 0.00 43 1016.6
20260902181545 80 234 2.6 6.1 0.00 0.00 0.00 42 1016.6
20260902181046 79 234 2.6 6.1 0.00 0.00 0.00 43 1016.8
20260902180812 78 236 2.6 5.2 0.00 0.00 0.00 44 1016.8
20260902180042 78 235 2.6 6.1 0.00 0.00 0.00 43 1016.8
20260902175541 78 235 2.6 6.1 0.00 0.00 0.00 46 1016.9
20260902174537 78 227 1.7 5.2 0.00 0.00 0.00 49 1016.9
20260902174037 78 227 1.7 6.1 0.00 0.00 0.00 50 1016.8
20260902173540 77 227 1.7 6.1 0.00 0.00 0.00 51 1016.9
20260902173308 77 227 1.7 4.3 0.00 0.00 0.00 51 1016.9
20260902172534 77 227 1.7 4.3 0.00 0.00 0.00 53 1016.9
20260902172308 76 226 0.9 4.3 0.00 0.00 0.00 53 1016.9
20260902171533 75 226 1.7 4.3 0.00 0.00 0.00 55 1016.9
20260902171033 75 226 2.6 4.3 0.00 0.00 0.00 55 1016.9
20260902170759 74 226 1.7 4.3 0.00 0.00 0.00 56 1016.8
20260902170544 74 226 1.7 4.3 0.00 0.00 0.00 56 1016.8
20260902170030 74 226 1.7 3.5 0.00 0.00 0.00 59 1016.8
20260902165529 73 227 1.7 4.3 0.00 0.00 0.00 61 1016.9
20260902165300 72 227 2.6 4.3 0.00 0.00 0.00 61 1016.8
20260902164524 72 227 1.7 5.2 0.00 0.00 0.00 63 1016.8
20260902164028 72 227 0.9 5.2 0.00 0.00 0.00 64 1016.8
20260902163757 71 227 1.7 3.5 0.00 0.00 0.00 67 1016.8
20260902163026 71 227 1.7 4.3 0.00 0.00 0.00 68 1016.8
20260902162753 71 227 1.7 4.3 0.00 0.00 0.00 68 1016.8
20260902162021 70 227 1.7 4.3 0.00 0.00 0.00 70 1016.8
20260902161522 70 227 1.7 4.3 0.00 0.00 0.00 72 1016.6
20260902160517 69 227 1.7 4.3 0.00 0.00 0.00 75 1016.6
20260902160252 68 226 2.6 4.3 0.00 0.00 0.00 76 1016.8
20260902155749 68 226 1.7 4.3 0.00 0.00 0.00 77 1016.8
20260902155018 68 226 1.7 4.3 0.00 0.00 0.00 77 1016.8
20260902154512 68 227 1.7 4.3 0.00 0.00 0.00 78 1016.8
20260902154014 67 226 1.7 4.3 0.00 0.00 0.00 78 1016.8
20260902153513 67 226 1.7 4.3 0.00 0.00 0.00 79 1016.8
20260902153244 67 226 1.7 3.5 0.00 0.00 0.00 79 1016.8
20260902152512 67 226 1.7 4.3 0.00 0.00 0.00 78 1016.6
20260902151514 67 226 0.9 4.3 0.00 0.00 0.00 79 1016.5
20260902151009 66 226 1.7 4.3 0.00 0.00 0.00 79 1016.5
20260902150010 66 229 1.7 4.3 0.00 0.00 0.00 79 1016.5
20260902145509 66 229 1.7 4.3 0.00 0.00 0.00 79 1016.6
20260902145005 66 229 0.9 3.5 0.00 0.00 0.00 79 1016.6
20260902144737 66 229 0.9 4.3 0.00 0.00 0.00 79 1016.6
20260902144006 66 229 0.9 4.3 0.00 0.00 0.00 79 1016.4
20260902143736 66 229 0.0 4.3 0.00 0.00 0.00 79 1016.5
20260902143001 65 236 0.0 3.5 0.00 0.00 0.00 79 1016.4
20260902142732 65 236 0.0 3.5 0.00 0.00 0.00 79 1016.4
20260902141501 65 236 0.0 2.6 0.00 0.00 0.00 81 1016.3
20260902141228 65 236 0.0 1.7 0.00 0.00 0.00 81 1016.2
20260902140559 64 236 0.0 1.7 0.00 0.00 0.00 81 1016.2
20260902135504 64 236 0.0 0.0 0.00 0.00 0.00 81 1016.2
20260902134454 64 236 0.0 0.0 0.00 0.00 0.00 82 1016.1
20260902133954 64 236 0.0 0.0 0.00 0.00 0.00 82 1016.0
20260902133454 64 236 0.0 0.0 0.00 0.00 0.00 81 1016.1
20260902132950 64 236 0.0 0.0 0.00 0.00 0.00 82 1016.1
20260902132720 64 236 0.0 0.0 0.00 0.00 0.00 81 1016.1
20260902131949 64 236 0.0 0.0 0.00 0.00 0.00 82 1016.0
20260902131449 64 236 0.0 0.0 0.00 0.00 0.00 82 1016.0
20260902130945 64 236 0.0 0.0 0.00 0.00 0.00 82 1016.0
20260902130445 64 236 0.0 0.0 0.00 0.00 0.00 82 1016.0
20260902125946 64 236 0.0 0.0 0.00 0.00 0.00 82 1016.1
20260902125445 64 236 0.0 0.0 0.00 0.00 0.00 82 1016.1
20260902124941 64 236 0.0 0.0 0.00 0.00 0.00 82 1016.2